Home   Weather   Vreden   Past weeks

Flag for Germany Past Weather in Vreden, North Rhine-Westphalia, Germany — Yesterday and Last 2 Weeks

Now
34 °F

Overcast.


Feels Like: 34 °F
Forecast: 33 / 51 °F
Wind: 2 mph from West

Location: Twenthe

Current Time: Apr 26, 2017 at 2:23:44 am

Latest Report: Apr 26, 2017 at 1:00 am


Visibility: 19 mi

Pressure: 29.83 "Hg

Humidity: 92%

Dew Point: 32 °F

Location of VredenLocation

Past Weather in Vreden — Graph

°F

Vreden Temperature Yesterday

Maximum temperature yesterday: 49 °F (at 3:00 pm)
Minimum temperature yesterday: 35 °F (at 11:00 pm)
Average temperature yesterday: 43 °F

High & Low Weather Summary for the Past Weeks

 TemperatureHumidityPressure
High57 °F (Apr 21, 2:00 pm)100% (Apr 20, 7:00 am)30.65 "Hg (Apr 20, 7:00 am)
Low25 °F (Apr 20, 6:00 am)35% (Apr 20, 4:00 pm)29.66 "Hg (Apr 25, 5:00 am)
Average44 °F73%30.20 "Hg
* Reported Apr 11 2:00 am — Apr 26 12:00 am, Vreden, Weather by CustomWeather, © 2017

Note: Actual official high and low records may vary slightly from our data, if they occured in-between our weather recording intervals... More about our weather records

Advertising

Vreden Weather History for the Previous 24 Hours

Scroll right to see more
 ConditionsComfort  
Time TempWeatherWind HumidityBarometerVisibility
12:00 am
Wed, Apr 26
36 °FOvercast.2 mph88%29.83 "Hg28 mi
11:00 pm
Tue, Apr 25
35 °FOvercast.2 mph87%29.83 "Hg25 mi
10:00 pm36 °FPassing clouds.2 mph81%29.83 "Hg28 mi
8:00 pm44 °FScattered clouds.6 mph54%29.81 "Hg25 mi
7:00 pm47 °FPassing clouds.8 mph37%29.80 "Hg28 mi
6:00 pm48 °FScattered clouds.5 mph54%29.80 "Hg19 mi
5:00 pm49 °FPartly sunny.8 mph46%29.79 "Hg25 mi
4:00 pm49 °FOvercast.8 mph48%29.79 "Hg28 mi
3:00 pm49 °FScattered clouds.7 mph57%29.78 "Hg25 mi
2:00 pm47 °FPartly sunny.9 mph61%29.76 "Hg28 mi
1:00 pm45 °FScattered clouds.8 mph74%29.73 "Hg22 mi
12:00 pm41 °FRain showers. Overcast.6 mph93%29.72 "Hg6 mi
11:00 am45 °FOvercast.8 mph69%29.70 "Hg25 mi
10:00 am43 °FPartly sunny.9 mph70%29.70 "Hg22 mi
9:00 am43 °FScattered clouds.7 mph75%29.69 "Hg19 mi
8:00 am41 °FPassing clouds.7 mph83%29.68 "Hg19 mi
7:00 am39 °FOvercast.5 mph87%29.68 "Hg28 mi
6:00 am40 °FOvercast.5 mph91%29.67 "Hg22 mi
5:00 am42 °FOvercast.5 mph92%29.66 "Hg19 mi
4:00 am42 °FOvercast.3 mph92%29.67 "Hg25 mi
3:00 am42 °FDrizzle. Overcast.3 mph93%29.68 "Hg19 mi
2:00 am41 °FDrizzle. Overcast.1 mph95%29.70 "Hg22 mi
Weather by CustomWeather, © 2017

See weather overviewHow to use our weather pages